Wind_Speed
9 11 11 13 14 14 15 15 15 15 16 16 15 14 12 10 8 7 6 5 5 4 4 5 5 6 6 8 11 14 16 16 18 18 17 15 13 12 11 10 9 9 8
8 9 10 11 12 13 13 14 14 14 15 16 15 15 14 12 10 8 7 6 5 4 3 3 4 4 5 6 8 11 13 15 16 17 16 15 15 14 12 12 11 10 9
7 8 8 9 10 11 11 12 12 13 14 15 15 15 14 14 12 10 8 7 6 4 3 3 3 4 4 6 7 8 10 12 15 16 16 16 15 15 14 12 11 9 9
6 6 7 8 8 9 9 10 10 11 11 13 14 14 14 14 13 12 10 7 6 4 3 2 3 3 4 5 6 7 8 9 12 13 13 13 15 15 14 11 9 8 8
5 5 6 7 7 7 7 7 7 8 9 10 11 12 13 14 14 13 11 9 7 5 3 1 1 2 3 4 5 7 7 7 8 9 9 9 9 11 10 8 6 6 6
4 4 5 5 6 6 5 4 4 5 6 7 8 9 11 12 14 13 12 10 8 6 4 2 0 2 2 3 5 6 7 8 7 6 6 6 6 6 6 4 3 3 3
3 4 4 4 5 5 4 3 2 2 3 4 5 7 8 10 11 12 12 11 9 7 5 3 1 1 2 2 4 5 7 8 7 5 3 3 4 4 4 3 2 1 0
4 4 4 3 4 4 4 3 1 0 1 3 4 4 5 7 8 10 10 10 10 9 8 6 3 2 2 1 2 4 6 7 6 4 3 2 3 4 3 2 1 1 1
4 5 5 5 4 4 4 3 2 2 2 3 4 4 5 5 6 7 8 9 9 10 10 9 7 5 3 2 1 3 5 6 6 4 3 3 3 3 2 1 1 0 1
4 6 6 6 6 5 5 4 4 4 4 5 5 6 6 6 6 6 6 7 8 9 10 10 9 7 5 4 3 3 4 5 5 5 4 3 2 2 2 1 1 1 1
4 6 7 8 8 7 7 6 6 6 6 7 7 8 9 9 8 8 7 7 7 8 9 9 9 8 6 5 4 3 3 4 4 4 4 3 2 2 2 2 2 2 2
6 7 8 8 9 9 8 8 8 7 7 8 9 10 11 11 11 10 10 9 8 8 8 8 8 8 7 5 3 2 2 3 3 3 3 3 3 3 3 3 2 3 2
9 9 10 10 9 9 9 9 9 9 9 8 9 11 12 13 13 12 12 11 10 10 9 8 7 7 7 5 3 1 1 2 3 3 4 4 5 4 4 4 4 4 3
12 12 12 12 11 11 10 10 10 10 10 10 10 11 13 14 15 14 14 14 13 12 11 10 9 8 7 6 4 2 2 3 3 3 4 5 5 6 6 6 6 6 6
15 15 14 14 14 13 13 12 12 12 12 12 12 12 13 15 16 16 16 16 15 15 14 13 11 10 9 9 7 5 4 4 4 5 5 6 6 7 7 8 8 9 9
20 18 17 16 16 16 16 15 15 15 15 15 15 15 15 15 16 17 17 17 17 17 16 16 14 13 12 11 10 9 8 8 6 6 7 7 7 8 8 9 10 10 11
23 22 21 20 19 19 19 18 18 18 17 18 17 17 17 16 17 17 18 18 19 19 18 18 17 16 15 13 12 12 12 12 10 9 9 8 9 10 10 11 11 12 13
26 25 24 24 23 22 22 21 20 20 20 20 20 19 19 18 18 19 19 19 20 20 20 19 20 19 18 17 15 14 14 14 14 13 12 12 12 12 13 13 13 14 15
30 29 28 27 26 25 24 23 23 23 23 23 23 22 22 21 20 20 20 20 21 21 21 21 21 22 21 20 19 18 18 17 17 16 16 16 15 15 16 16 17 17 17
34 33 32 31 30 29 28 27 26 26 27 27 27 26 25 24 23 22 22 21 21 21 21 21 21 22 23 23 22 22 22 21 20 19 19 19 18 18 18 18 18 19 20
38 38 38 36 35 33 32 31 30 30 30 31 30 30 29 28 26 25 24 23 23 22 21 22 23 23 24 25 24 24 25 25 23 21 21 21 21 21 21 20 20 21 22
41 41 41 40 39 38 36 34 34 34 33 33 33 33 33 32 29 27 26 25 24 24 23 22 23 24 25 26 27 27 27 27 26 24 23 23 22 22 22 22 22 23 23
42 43 43 43 42 41 40 38 36 35 35 34 35 35 35 32 30 28 27 25 24 24 24 23 22 23 24 26 28 29 28 28 27 27 26 25 23 22 23 23 23 24 25
42 42 42 42 42 41 40 38 37 35 35 35 35 34 34 33 31 30 29 28 26 25 25 24 23 24 25 26 27 29 29 29 28 28 28 27 26 24 23 23 23 24 25
40 41 41 41 41 40 39 38 36 35 34 34 34 34 34 32 32 32 30 29 27 26 26 26 25 25 25 26 27 29 30 30 30 29 29 29 28 27 25 24 23 23 25
36 38 38 39 39 39 39 37 36 35 34 34 34 34 35 34 33 32 31 31 29 28 28 25 25 26 26 27 28 29 31 32 32 31 30 30 29 28 27 26 25 24 24
Wind_Direction
95 94 90 87 84 81 77 72 69 65 63 61 61 63 65 69 74 78 83 90 103 119 136 148 159 176 189 201 208 209 212 213 214 217 222 226 228 230 236 244 253 261 272
101 104 102 95 89 85 80 75 70 66 63 61 61 61 63 64 66 71 77 84 93 107 124 143 161 176 192 203 211 215 216 219 218 222 229 232 233 237 243 248 256 263 271
110 112 114 108 99 91 84 78 73 68 64 62 60 59 60 61 61 62 68 75 84 97 115 136 160 179 196 203 206 212 218 226 225 227 232 236 239 241 244 248 255 262 270
120 121 124 123 114 103 92 85 77 69 65 62 60 58 58 58 58 57 59 63 69 77 94 127 158 184 201 206 210 211 217 226 223 225 233 242 242 242 242 244 250 257 267
133 130 133 135 132 122 107 94 82 71 64 61 59 57 55 55 55 55 55 55 57 59 61 89 169 205 217 219 215 211 212 217 213 219 231 239 238 236 237 234 236 251 266
151 144 141 144 147 143 131 114 94 73 61 56 55 53 52 52 52 52 52 51 50 50 46 38 269 237 241 238 226 217 212 213 208 208 219 227 222 207 199 195 216 241 258
182 170 161 156 157 158 155 145 124 76 48 42 42 42 44 47 48 47 46 44 41 38 32 24 359 291 271 256 234 219 209 208 204 202 209 216 205 183 166 163 165 154 303
212 207 200 187 175 171 170 171 180 230 5 13 15 16 22 31 37 39 38 35 32 29 25 20 16 8 353 328 225 209 205 206 204 199 195 186 177 166 147 152 146 67 33
232 231 228 227 217 205 203 211 230 259 306 329 339 340 344 355 8 17 22 23 22 21 20 20 21 24 28 45 110 172 194 201 201 197 181 167 159 168 160 127 119 24 4
241 242 240 243 244 241 240 245 256 271 289 304 313 316 318 324 333 342 353 360 4 7 12 16 20 26 36 51 83 127 176 194 192 191 192 188 189 199 223 241 277 320 331
248 247 248 250 252 253 255 261 267 277 286 293 298 301 303 307 311 315 321 331 340 349 358 7 15 20 29 46 70 105 164 193 195 198 203 211 223 244 252 268 300 318 332
262 253 250 251 254 255 260 266 271 277 283 288 290 292 294 298 301 302 304 306 315 326 338 348 359 8 16 30 53 88 166 207 211 214 219 227 240 257 267 276 292 309 323
271 267 260 254 252 253 254 259 266 271 275 280 283 285 287 291 293 293 294 295 298 305 314 321 329 341 354 3 20 42 234 242 238 233 233 239 247 256 266 276 284 291 296
263 266 267 264 261 260 259 258 261 264 267 270 275 278 282 286 288 288 289 290 290 291 294 299 305 312 321 328 333 326 279 272 259 254 254 255 260 263 266 271 274 276 277
259 258 259 261 260 261 262 262 262 263 265 268 271 274 278 282 284 284 284 285 284 283 283 285 289 293 299 303 301 300 293 281 272 264 263 266 268 269 269 270 271 273 274
257 256 254 257 258 259 260 263 266 267 268 270 272 272 274 276 278 279 279 278 278 277 276 276 277 281 286 290 291 291 290 283 278 269 265 269 273 275 276 276 276 275 275
258 255 253 253 254 257 260 262 266 268 270 272 273 273 272 273 274 275 276 276 276 275 275 274 275 275 277 277 276 276 278 280 279 275 272 273 277 280 282 282 282 281 279
259 257 256 253 252 253 256 260 264 268 270 271 272 272 272 272 271 270 270 271 273 274 274 272 271 270 270 271 270 269 271 275 278 277 275 275 277 280 283 285 285 284 283
260 258 258 258 256 255 255 256 259 264 267 268 269 270 270 271 270 269 267 267 266 268 269 269 268 267 267 268 269 269 270 271 273 275 275 277 279 281 283 285 286 286 285
261 260 260 259 259 259 259 260 259 262 264 265 266 266 266 266 267 266 265 266 265 264 264 266 267 266 265 266 266 268 271 270 268 268 271 275 278 281 284 286 287 288 287
261 261 261 261 261 260 259 260 260 261 263 264 266 268 266 263 263 262 262 264 265 264 265 266 267 266 266 264 264 266 268 269 266 263 265 270 275 279 283 286 287 287 287
261 261 261 261 261 261 260 259 258 259 260 262 263 265 266 263 259 260 261 261 264 265 265 266 269 267 266 263 262 264 267 266 263 263 263 266 270 275 279 283 285 287 287
258 259 259 260 260 260 260 261 260 259 260 262 266 264 264 263 257 257 260 260 262 264 265 265 268 267 266 265 261 261 263 263 261 262 264 265 266 269 274 279 283 286 286
256 256 256 257 258 258 258 259 259 260 260 261 264 264 265 265 263 259 259 260 261 262 264 266 266 266 265 265 261 259 259 260 260 261 263 264 266 268 271 275 279 281 283
253 252 252 253 254 256 256 257 257 258 258 260 262 263 265 266 265 261 260 259 261 262 263 263 265 263 265 265 260 256 255 255 256 257 261 263 266 269 271 273 275 276 277
250 248 248 248 250 252 254 255 256 257 259 260 262 264 265 267 268 266 262 261 262 264 262 262 265 264 265 265 261 256 254 253 252 253 257 261 264 267 271 273 274 274 273
Height
5917 5916 5916 5915 5915 5914 5914 5913 5913 5912 5911 5910 5909 5908 5907 5907 5906 5906 5905 5905 5905 5905 5905 5905 5905 5905 5905 5906 5906 5908 5909 5911 5913 5914 5915 5915 5916 5917 5917 5918 5918 5918 5918
5918 5918 5918 5917 5917 5917 5916 5916 5915 5914 5913 5912 5911 5910 5909 5908 5907 5907 5906 5906 5906 5906 5905 5905 5905 5905 5905 5905 5906 5907 5909 5910 5911 5912 5913 5914 5915 5915 5916 5916 5917 5917 5917
5919 5919 5919 5919 5919 5919 5918 5918 5917 5916 5915 5914 5913 5911 5910 5909 5908 5907 5907 5907 5906 5906 5906 5905 5905 5905 5905 5905 5906 5907 5908 5908 5909 5910 5912 5913 5913 5914 5914 5915 5915 5915 5916
5920 5920 5920 5920 5920 5920 5920 5920 5919 5918 5917 5916 5915 5913 5912 5911 5909 5908 5908 5907 5907 5906 5906 5906 5905 5905 5905 5905 5905 5906 5907 5907 5907 5909 5910 5911 5911 5912 5912 5913 5914 5914 5914
5921 5921 5921 5921 5921 5922 5922 5921 5921 5920 5919 5918 5916 5915 5914 5912 5911 5910 5909 5908 5907 5906 5906 5905 5905 5905 5905 5905 5905 5905 5905 5906 5906 5908 5909 5909 5909 5910 5910 5911 5912 5913 5913
5921 5921 5921 5922 5922 5922 5923 5922 5922 5921 5920 5919 5918 5917 5915 5914 5913 5911 5910 5909 5908 5907 5906 5905 5905 5904 5904 5904 5904 5904 5905 5905 5906 5907 5908 5908 5909 5909 5910 5910 5911 5912 5912
5921 5921 5922 5922 5922 5923 5923 5923 5923 5922 5921 5920 5919 5918 5917 5915 5914 5913 5911 5910 5909 5907 5906 5905 5904 5904 5904 5903 5903 5904 5904 5905 5905 5906 5907 5907 5908 5909 5909 5910 5910 5911 5911
5921 5921 5922 5922 5922 5923 5923 5923 5923 5922 5922 5921 5920 5919 5918 5917 5915 5914 5912 5911 5910 5908 5907 5906 5905 5904 5904 5903 5903 5903 5904 5904 5905 5906 5907 5907 5908 5909 5909 5909 5910 5910 5910
5920 5921 5921 5922 5922 5922 5923 5923 5923 5922 5922 5921 5920 5919 5918 5917 5916 5915 5913 5912 5911 5909 5908 5907 5906 5905 5904 5903 5903 5903 5904 5904 5905 5906 5907 5907 5908 5908 5909 5909 5909 5910 5910
5920 5920 5921 5921 5921 5922 5922 5922 5922 5922 5922 5921 5920 5919 5918 5917 5916 5915 5914 5912 5911 5910 5909 5908 5906 5905 5904 5904 5904 5904 5904 5904 5905 5906 5907 5907 5908 5908 5908 5908 5909 5909 5909
5919 5919 5920 5920 5920 5921 5921 5921 5921 5921 5921 5921 5920 5919 5918 5917 5916 5915 5914 5913 5912 5911 5909 5908 5907 5906 5905 5905 5904 5904 5904 5904 5905 5906 5906 5907 5907 5908 5908 5908 5909 5909 5909
5918 5918 5918 5918 5919 5919 5919 5919 5920 5920 5920 5919 5919 5918 5917 5916 5916 5915 5914 5913 5912 5911 5910 5909 5908 5907 5906 5905 5905 5904 5904 5904 5905 5906 5906 5907 5907 5907 5908 5908 5908 5909 5909
5917 5916 5916 5917 5917 5917 5917 5917 5917 5918 5918 5917 5917 5916 5915 5915 5914 5914 5913 5912 5911 5910 5909 5908 5908 5907 5907 5906 5905 5905 5904 5904 5905 5905 5905 5906 5906 5907 5907 5907 5908 5908 5908
5916 5915 5914 5914 5914 5914 5914 5915 5915 5915 5915 5915 5915 5914 5913 5912 5912 5911 5911 5910 5909 5909 5908 5908 5907 5907 5906 5906 5905 5905 5904 5904 5904 5904 5904 5905 5905 5906 5906 5906 5907 5907 5907
5914 5914 5913 5912 5911 5911 5912 5912 5912 5912 5912 5912 5912 5911 5911 5910 5909 5908 5908 5907 5907 5907 5907 5906 5906 5905 5905 5905 5905 5904 5904 5903 5903 5903 5903 5904 5904 5904 5904 5905 5905 5905 5906
5909 5910 5910 5910 5909 5909 5909 5908 5908 5908 5908 5908 5908 5908 5907 5907 5906 5905 5904 5904 5904 5904 5904 5904 5903 5903 5903 5903 5903 5903 5902 5902 5902 5902 5902 5902 5902 5902 5903 5903 5903 5903 5903
5903 5904 5904 5905 5905 5905 5904 5904 5904 5904 5904 5904 5903 5903 5903 5903 5902 5901 5900 5900 5899 5899 5900 5899 5899 5900 5900 5901 5901 5901 5901 5900 5900 5900 5900 5900 5900 5900 5900 5900 5900 5900 5900
5895 5896 5897 5898 5898 5899 5899 5899 5899 5899 5899 5899 5898 5898 5898 5898 5898 5897 5897 5896 5895 5894 5895 5895 5895 5896 5896 5897 5898 5898 5898 5898 5897 5897 5897 5897 5897 5897 5897 5897 5897 5897 5897
5887 5888 5889 5890 5891 5892 5892 5893 5893 5893 5893 5893 5893 5893 5892 5892 5892 5892 5892 5892 5891 5891 5891 5891 5891 5891 5892 5892 5893 5893 5894 5894 5894 5894 5893 5894 5894 5894 5894 5894 5894 5893 5893
5878 5879 5880 5882 5883 5884 5885 5886 5886 5886 5886 5886 5886 5887 5887 5886 5886 5886 5886 5886 5886 5886 5886 5886 5886 5886 5886 5887 5887 5888 5888 5889 5890 5890 5889 5889 5889 5890 5890 5890 5889 5889 5889
5868 5870 5871 5873 5874 5875 5877 5878 5879 5879 5879 5879 5879 5879 5880 5880 5879 5879 5880 5880 5880 5880 5880 5880 5880 5880 5881 5881 5882 5882 5883 5883 5884 5885 5885 5885 5885 5884 5884 5885 5885 5884 5883
5858 5859 5861 5862 5864 5865 5867 5868 5869 5870 5870 5871 5871 5871 5871 5871 5872 5872 5873 5874 5874 5874 5874 5874 5874 5874 5874 5875 5876 5876 5877 5878 5878 5879 5880 5881 5881 5880 5879 5879 5879 5879 5878
5847 5849 5850 5852 5853 5855 5857 5858 5859 5861 5862 5863 5862 5862 5862 5862 5863 5865 5866 5866 5867 5867 5867 5867 5868 5868 5868 5868 5869 5870 5870 5871 5872 5873 5873 5874 5875 5875 5875 5874 5874 5873 5872
5837 5838 5840 5841 5843 5845 5847 5849 5850 5852 5853 5854 5853 5853 5854 5854 5855 5856 5857 5858 5859 5859 5859 5860 5860 5861 5861 5861 5861 5862 5863 5864 5865 5866 5867 5867 5868 5869 5869 5869 5868 5867 5866
5826 5827 5830 5832 5834 5836 5837 5839 5841 5843 5845 5845 5845 5845 5846 5846 5846 5847 5849 5850 5850 5851 5851 5852 5852 5853 5853 5854 5854 5855 5856 5857 5858 5859 5860 5861 5861 5862 5862 5863 5863 5862 5860
5816 5818 5821 5823 5825 5827 5829 5830 5832 5834 5835 5836 5837 5837 5837 5838 5837 5837 5839 5841 5842 5843 5843 5844 5844 5845 5846 5846 5846 5847 5848 5849 5851 5852 5853 5854 5855 5855 5855 5855 5855 5855 5855